Погода в Оковцах

Россия / Тверская область     56°39′17″N   33°28′48″E
темп.,
°C
ветер,
м/с
пор.,
м/с
влажн.,
%
обл.,
%
осадки,
мм/ч
давл.,
гПа
погр.,
м
31 июля, сб
сб3100:00+14ююз389291 0.0 1003137
03:00+14юз310877 0.0 1003214
06:00+14юз412845 0.0 1002371
09:00+19зюз6125691 0.0 10021317
12:00+21зюз61154100 0.0 10031750
15:00+20з511677 0.5 10041478
18:00+22з510595 0.4 10051536
21:00+16зюз23844 0.6 100662
1 августа, вс
вс100:00+15юз2590100 0.0 100791
03:00+14ююз2587100 0.0 1008109
06:00+15ю2984100 0.0 1008195
09:00+15ююз31095100 1.4 1008389
12:00+16ююв31097100 1.8 1008344
15:00+20юз5984100 2.3 1007974
18:00+22ююз4871100 0.3 1006752
21:00+17юз3772100 0.4 1007114
2 августа, пн
пн200:00+16юз3872100 0.0 1008176
03:00+15зюз2277100 0.0 100944
06:00+16ю227449 0.0 100854
09:00+21ююв2456100 0.0 1006431
12:00+24ю3658100 0.2 10041375
15:00+19всв1394100 5.3 1003213
18:00+20юз41191100 6.4 1000520
21:00+18юз389899 8.4 1001349
3 августа, вт
вт300:00+15зсз2697100 0.1 1002446
03:00+14зсз3898100 0.1 1002420
06:00+14з3998100 0.0 1003430
09:00+14з3898100 2.4 1005400
12:00+17з3584100 0.8 1006793
15:00+21зюз365298 1.9 10061963
18:00+18зсз4874100 1.0 1007393
21:00+14з26871 1.4 1009113
4 августа, ср
ср400:00+11з239325 0.0 101154
03:00+11зсз23971 0.0 101346
06:00+10зсз24972 0.0 1014114
09:00+16сз35650 0.0 1015675
12:00+20сз34434 0.0 10161768
15:00+21сз233536 0.0 10162217
18:00+20ссз2347100 0.0 1016412
21:00+14с226621 0.0 101810